RH
83 96 95 85 77 72 71 69 68 60 48 57 59 56 49 42 40 36 33 32 29 24 23 23 23 24 25 26 27 28 33 52 65 65 86 93 94 98 93 88 85 83 86 99
95 95 77 68 65 74 82 85 76 59 48 58 59 61 48 40 36 31 29 27 26 25 22 22 23 23 25 26 28 28 34 38 48 61 70 64 83 89 90 94 96 88 89 94
91 71 64 80 74 82 80 86 78 73 54 55 58 64 54 38 32 29 28 27 26 26 25 23 22 23 24 26 28 28 38 40 53 53 61 81 84 85 96 93 96 99 97 92
83 66 86 89 93 82 93 69 67 70 76 93 58 86 54 41 39 33 29 28 27 26 25 24 23 24 24 25 27 29 33 47 52 59 57 62 92 95 93 87 85 90 89 85
70 67 64 83 76 77 87 66 78 82 80 82 76 90 58 38 40 35 30 28 28 27 25 24 23 23 27 27 28 29 34 47 56 58 58 63 71 76 80 90 91 91 95 86
71 49 56 60 59 80 80 92 92 78 83 96 84 86 70 48 42 35 32 50 54 48 38 39 35 39 52 56 52 48 48 58 67 63 68 72 72 68 72 84 99 96 92 96
73 74 58 55 69 58 88 97 98 99 99 99 84 81 63 46 37 37 46 57 56 52 55 58 60 62 68 69 64 57 55 54 55 57 67 73 76 81 77 72 77 86 99 97
98 92 66 54 70 70 77 90 96 98 98 92 68 98 79 46 41 45 51 45 46 47 49 55 56 59 60 64 67 65 64 62 53 57 55 55 59 72 74 75 71 68 66 70
97 96 96 98 91 84 77 94 82 98 94 99 97 82 56 44 57 52 47 42 42 45 43 46 51 56 60 61 66 67 67 69 71 68 60 66 62 63 76 78 78 75 74 71
99 97 100 94 89 92 99 96 99 98 98 98 98 76 92 69 64 62 68 69 68 64 54 48 48 50 51 52 53 61 68 69 78 82 88 85 85 89 88 93 96 91 83 78
100 100 79 86 99 98 98 99 99 100 100 97 92 99 100 90 81 87 89 86 81 69 65 64 51 44 43 42 33 29 29 32 42 51 73 86 90 97 99 99 100 97 100 99
79 99 99 77 86 79 93 100 99 98 97 98 98 98 100 96 92 88 85 88 78 80 79 69 73 69 64 53 49 44 40 29 19 19 20 30 58 84 90 94 95 100 98 98
74 94 97 87 92 75 100 100 100 100 99 98 96 98 97 97 94 95 95 98 88 79 88 84 80 76 70 64 47 52 54 48 45 40 19 16 17 24 41 61 59 73 84 90
72 99 98 96 91 67 80 99 98 98 98 97 99 100 100 99 96 89 90 89 85 88 84 72 65 59 55 46 37 39 39 30 38 40 49 43 27 22 22 28 34 41 48 63
75 93 76 64 51 52 56 65 85 84 89 95 99 98 93 95 90 84 77 69 73 63 57 55 46 41 44 36 34 38 39 31 46 41 37 43 45 41 30 34 28 30 39 38
52 79 60 59 40 41 58 48 36 47 65 70 73 78 77 84 85 77 75 77 57 48 39 37 37 33 34 32 32 34 36 34 32 29 22 28 39 36 37 42 36 33 28 32
47 67 75 69 44 51 66 61 44 36 42 58 66 48 76 86 79 73 73 62 44 37 29 32 30 30 30 30 32 35 36 33 32 31 32 30 36 33 23 19 43 45 39 28
74 58 72 82 66 78 42 29 26 34 36 37 49 47 51 54 55 50 48 44 37 27 28 31 31 31 30 29 29 31 33 32 31 34 34 33 33 34 33 25 24 27 37 36
36 72 82 86 77 53 39 41 44 46 48 35 39 38 38 45 43 50 42 38 36 34 34 33 31 30 29 29 28 28 29 29 30 31 30 35 31 33 39 38 38 46 51 47
53 62 82 81 79 74 95 59 34 37 80 42 40 44 43 48 75 64 38 37 38 38 37 37 35 34 32 32 34 34 32 30 29 29 30 31 33 34 34 40 46 41 55 54
70 90 83 90 88 69 71 49 39 58 91 51 43 44 44 54 48 39 40 44 46 47 45 44 44 44 44 44 44 43 42 42 39 37 33 30 30 32 35 39 44 41 47 65
73 80 93 93 95 91 67 55 80 88 70 42 39 38 40 39 39 42 44 47 46 51 55 54 58 56 55 58 58 55 60 59 54 50 50 42 38 35 34 36 38 42 43 47
91 90 89 83 95 85 79 57 43 42 42 40 40 43 44 46 46 46 46 49 58 61 62 62 70 76 71 74 74 73 68 64 58 55 56 58 58 47 43 42 42 45 44 44
76 91 90 84 92 94 99 75 56 42 43 45 46 48 50 51 51 51 52 53 55 58 66 68 84 82 79 82 80 74 67 59 53 48 39 37 48 61 58 49 46 47 46 47
74 65 72 91 96 91 83 50 45 44 46 48 50 52 53 52 61 66 68 72 74 73 72 70 77 80 79 81 77 72 67 67 69 66 58 55 54 50 61 69 56 48 51 51
43 36 70 86 55 47 44 42 41 45 49 50 51 52 62 65 70 70 73 75 78 78 79 82 95 82 82 83 77 73 72 78 98 100 100 96 78 74 75 76 76 56 56 53
Wind_Speed
32 20 24 37 34 29 28 27 29 36 13 18 25 37 29 27 35 29 35 37 36 36 25 26 28 23 32 35 40 40 43 46 45 46 49 51 49 48 42 41 41 42 47 48
18 26 37 33 24 31 29 31 37 36 17 22 22 33 27 25 28 28 32 30 25 29 35 34 31 34 30 36 36 40 41 45 46 47 47 46 53 49 50 46 44 44 45 52
30 34 24 31 32 30 34 34 40 31 14 22 23 36 32 28 28 31 31 34 38 34 33 36 39 37 39 37 37 39 41 45 49 48 44 45 49 52 50 49 51 48 44 46
25 30 21 23 27 32 32 36 36 30 20 20 19 20 23 18 26 26 27 38 43 43 39 36 39 31 43 40 40 39 36 42 45 46 47 46 50 53 55 59 57 53 50 47
37 25 25 27 32 28 31 26 28 31 25 22 19 12 35 20 24 21 17 27 36 40 48 43 45 35 38 41 40 41 32 38 38 42 45 46 46 49 49 51 53 54 57 51
38 30 24 29 17 12 12 14 25 31 24 22 28 20 27 15 6 8 4 15 21 21 19 17 19 26 24 23 22 22 22 22 33 42 39 40 41 39 40 42 47 48 50 56
34 38 35 25 26 20 11 10 5 4 5 4 17 20 27 8 12 6 5 19 25 35 36 37 36 30 26 21 17 14 12 10 11 15 25 36 36 39 41 45 46 49 46 45
4 22 21 21 32 21 19 17 10 4 3 3 16 8 8 29 31 16 30 28 30 37 39 37 34 30 25 20 19 15 10 7 15 13 14 19 18 34 39 40 42 43 46 49
9 5 3 10 8 9 31 20 15 12 15 5 3 1 8 7 18 18 17 29 28 32 37 34 29 27 22 17 14 12 11 11 7 3 10 11 18 26 30 37 42 43 44 45
2 6 2 4 5 10 6 9 9 7 3 5 8 9 3 15 16 15 17 18 27 32 36 35 33 30 26 19 12 6 5 6 8 9 9 7 11 13 18 21 29 36 38 41
3 3 6 4 4 2 5 4 5 4 0 6 6 3 6 11 13 15 12 21 25 29 28 25 24 22 20 18 17 14 13 10 8 9 6 2 5 5 7 11 12 21 36 36
4 4 4 3 8 3 2 2 4 3 3 2 4 3 5 10 11 13 9 16 20 22 22 17 17 14 13 11 10 11 12 12 9 9 10 8 4 4 6 6 13 11 10 3
4 2 5 4 1 3 4 4 5 4 2 2 3 1 1 6 6 7 8 8 10 13 11 10 13 13 13 13 12 7 5 6 8 9 10 9 10 8 5 6 9 11 20 25
5 3 6 4 3 6 7 6 4 3 1 3 3 3 3 2 5 3 7 8 5 3 2 1 2 2 3 9 11 10 12 11 10 9 9 10 9 9 10 13 11 9 11 14
2 1 3 9 10 9 9 5 3 1 3 2 1 5 5 7 9 8 12 11 12 10 5 6 4 2 3 4 9 9 10 11 11 14 11 11 11 11 10 11 15 16 15 16
2 2 4 4 10 9 6 10 4 4 2 5 9 2 10 13 7 9 12 10 10 13 5 9 2 3 5 2 4 5 9 11 14 13 11 10 10 14 14 15 14 17 20 21
4 2 4 3 11 10 5 3 2 3 7 1 3 4 9 10 11 6 17 5 12 8 8 6 1 3 7 8 10 9 11 11 16 17 17 12 11 14 14 15 17 19 21 20
2 2 2 3 4 3 5 1 6 16 20 13 14 12 9 11 19 25 20 15 7 11 9 8 7 10 12 11 13 14 14 16 19 18 20 19 18 18 18 16 15 16 19 22
6 4 2 2 3 8 7 6 6 12 16 15 16 16 14 23 23 17 22 19 15 11 10 11 14 17 17 15 17 18 19 22 22 22 23 23 23 24 23 22 18 19 21 20
6 6 3 3 2 3 3 14 18 5 6 10 14 14 13 16 7 3 14 15 15 13 14 17 18 20 23 23 22 24 24 26 28 28 26 25 28 27 25 26 23 23 24 21
2 2 4 2 2 5 6 8 17 4 1 6 17 16 16 6 4 9 9 10 12 15 17 18 20 22 21 21 23 26 27 27 29 29 29 30 29 30 27 26 31 29 26 27
2 2 1 1 2 3 13 7 4 3 3 15 20 16 11 10 9 9 12 16 21 17 18 18 21 22 23 20 20 24 24 22 24 25 26 30 28 30 32 33 33 34 30 32
5 3 2 3 2 5 12 6 11 13 17 16 16 17 16 15 15 16 17 16 11 17 21 22 19 25 28 26 27 32 31 33 35 33 32 28 25 32 32 36 34 35 34 33
3 7 4 1 5 9 17 12 17 13 15 15 15 14 14 16 16 16 17 22 23 24 23 19 23 29 32 31 35 38 39 40 42 45 47 47 42 33 30 36 38 38 36 34
4 2 2 4 5 3 7 4 5 14 14 12 11 12 11 12 12 14 16 17 17 18 22 27 29 32 36 40 40 36 38 39 41 43 46 48 49 49 42 33 39 39 35 31
2 2 3 2 3 4 2 12 11 11 11 11 11 11 10 13 16 19 18 19 21 24 25 26 25 32 35 33 37 39 39 38 37 37 38 40 43 43 44 37 35 38 35 33
Wind_Direction
224 226 232 225 226 231 239 242 250 251 214 220 233 253 252 250 252 256 251 248 245 235 245 250 234 239 226 218 213 215 221 212 208 209 201 202 204 204 206 213 215 213 211 209
236 230 226 235 229 226 226 233 241 259 228 208 231 252 253 243 242 245 246 251 253 256 242 249 247 233 224 215 210 213 223 215 213 216 209 210 205 207 207 209 214 216 208 210
239 242 230 233 234 232 223 227 238 244 243 239 254 267 259 253 252 250 250 257 259 253 251 243 248 245 221 212 208 214 217 219 214 214 217 210 206 206 209 212 216 215 214 211
245 244 239 251 266 235 226 223 236 239 238 238 213 259 251 251 245 240 246 247 249 248 242 241 234 240 217 210 208 209 209 214 220 216 216 217 204 203 207 211 214 217 219 219
243 242 230 236 235 232 250 231 234 243 230 243 222 237 265 231 237 235 223 233 240 243 236 236 232 230 216 205 205 208 200 210 219 220 220 217 217 211 209 211 217 218 218 218
254 250 240 239 246 216 264 292 308 234 225 228 219 215 259 236 231 237 143 77 76 93 122 132 145 155 136 132 150 167 169 169 203 216 223 222 222 222 218 218 217 220 219 215
241 245 246 252 253 254 224 224 254 236 198 238 214 216 235 218 223 208 97 96 85 79 81 90 101 112 108 109 120 141 167 169 176 183 206 225 226 216 227 223 221 221 219 215
249 248 252 242 229 245 226 216 231 263 207 193 187 208 224 237 243 109 104 92 80 79 83 86 88 87 94 105 110 115 120 134 208 208 218 223 217 225 227 229 227 228 233 233
355 346 315 7 313 282 229 234 211 239 233 265 233 204 280 70 80 90 76 80 74 73 76 75 72 74 77 87 90 114 102 91 99 167 228 236 226 228 227 228 233 232 233 237
328 290 269 264 351 33 55 307 199 216 244 202 195 210 137 80 75 61 64 61 57 60 67 72 72 70 67 66 66 54 66 70 46 51 80 149 192 199 214 223 238 245 250 244
234 238 288 206 38 299 28 342 29 305 281 236 215 119 342 87 80 67 44 56 54 57 54 60 67 72 71 70 65 59 44 36 26 10 13 85 138 104 172 188 216 245 233 242
11 297 281 10 93 71 192 224 164 146 8 109 326 32 335 74 75 77 54 50 56 56 37 29 30 27 19 31 39 37 40 28 24 15 16 13 347 274 238 263 269 252 224 284
330 322 317 359 35 46 24 33 43 22 340 86 106 79 61 83 73 71 86 40 28 26 7 24 33 25 10 358 13 1 349 349 343 345 357 4 349 343 322 270 293 295 265 273
304 26 8 22 335 293 350 8 50 54 330 62 11 117 158 118 120 112 142 148 151 154 144 157 119 142 57 342 12 12 15 9 1 330 317 319 337 346 326 313 306 309 297 282
71 30 345 334 326 4 325 2 4 28 138 88 216 184 187 167 200 208 195 179 184 167 169 188 213 43 129 359 4 15 345 357 357 342 353 332 315 298 315 315 307 303 305 303
290 252 4 340 24 357 304 302 338 251 277 148 125 126 203 202 217 204 218 242 146 148 151 142 167 19 88 348 332 304 316 343 330 319 331 329 331 322 320 291 294 298 303 307
301 24 21 356 350 332 350 261 224 283 186 76 21 358 150 190 208 230 219 161 105 105 90 129 3 6 334 322 326 311 325 328 327 324 329 318 314 311 310 303 303 296 290 296
202 64 35 289 355 39 282 309 359 63 36 97 99 82 89 94 88 75 81 90 86 88 55 37 3 322 317 319 322 305 288 304 311 308 307 311 310 304 307 311 297 294 290 284
209 128 34 67 325 280 352 24 37 80 48 41 60 53 70 81 72 36 40 45 44 30 3 343 334 335 337 329 322 314 302 298 293 290 290 289 299 302 297 298 296 296 293 290
65 70 121 46 358 315 28 331 347 101 66 46 51 53 63 61 57 326 17 9 6 6 358 346 333 322 314 313 314 309 303 303 293 288 284 285 284 285 291 289 288 294 294 295
12 24 165 149 213 299 345 331 318 45 160 19 68 59 55 63 75 14 2 349 329 327 326 321 317 318 316 309 307 303 301 301 300 299 294 286 284 282 279 275 279 288 294 296
143 96 80 141 205 292 337 360 61 71 36 44 43 39 38 30 14 3 344 333 328 323 316 317 321 313 308 307 304 295 297 300 292 285 291 285 284 277 276 272 276 277 284 291
31 2 277 130 198 232 304 324 93 81 53 39 32 31 27 19 4 352 340 331 326 320 316 308 309 310 303 303 296 292 288 293 295 288 282 282 283 275 275 269 265 268 277 286
78 28 353 3 37 17 9 26 52 45 55 46 33 21 11 3 352 344 335 328 323 319 321 325 311 307 305 308 300 299 298 295 291 287 282 277 273 272 269 262 261 264 270 279
229 188 113 112 89 193 187 61 68 55 39 30 11 5 359 350 3 354 346 343 339 329 321 317 310 306 302 301 302 303 304 302 296 287 278 273 270 266 262 259 251 259 264 273
207 95 95 201 166 97 92 72 60 64 46 25 13 10 21 359 348 338 337 334 329 323 315 307 302 300 302 310 311 312 312 307 297 285 278 274 270 264 261 255 247 249 255 266